Location: Albany
(35.0170°S, 117.8920°E)
Time: 01:42:32
(UTC+08:00)

Explorer 7 - Pass Details

Date: 29 January 2021
Orbit: 484 x 677 km, 50.3° (Epoch: 01 March)

Event Time Altitude Azimuth Distance (km) Brightness Sun altitude
Rises 20:13:12 0° 225° (SW) 2,959 12.3 -10.9°
Reaches altitude 10° 20:15:46 10° 216° (SW) 2,014 10.9 -11.4°
Maximum altitude 20:20:02 35° 149° (SSE) 974 8.1 -12.1°
Enters shadow 20:23:09 15° 88° (E) 1,588 8.6 -12.7°
Drops below altitude 10° 20:24:01 10° 82° (E) 1,885 - -12.8°
Sets 20:26:21 0° 73° (ENE) 2,742 - -13.2°
